Regional Weather Roundup
Issued by NWS

Home | Current Version | Previous Version | Graphics & Text | Print | Product List | Glossary On
Versions: 1 2 3 4 5 6 7 8 9 10 11 12 13 14 15 16 17 18 19 20 21 22 23 24 25 26 27 28
000
ASUS45 KSLC 281510
RWRUT

UTAH REGIONAL WEATHER ROUNDUP
NATIONAL WEATHER SERVICE SALT LAKE CITY UT
900 AM MDT SUN MAY 28 2017

UTZ001>011-023>025-281600-

NORTHERN UTAH

CITY           SKY/WX    TMP DP  RH WIND       PRES   REMARKS
BRIGHAM CITY   SUNNY     55  41  58 N3        30.28R
HILL AFB       SUNNY     55  36  48 E17G23    30.27S
LOGAN          SUNNY     53  41  63 VRB3      30.31S
OGDEN          SUNNY     59  37  44 W5        30.26S
SALT LAKE CITY SUNNY     64  38  38 CALM      30.25S
TOOELE VALLEY  SUNNY     61  41  48 SW5       30.27S
WENDOVER       SUNNY     62  34  35 SE3       30.27R
WEST JORDAN    SUNNY     60  44  55 SE5       30.28S

$$

UTZ011>015-024>027-281600-

CENTRAL/NORTHEAST UTAH

CITY           SKY/WX    TMP DP  RH WIND       PRES   REMARKS
PROVO AIRPORT  SUNNY     58  37  45 S5        30.29R
MOAB/CANYONLAN SUNNY     66  28  24 NE16      30.24R
DELTA          SUNNY     57  34  41 NE5       30.28S
PRICE          SUNNY     59  27  29 CALM      30.32R
ROOSEVELT      SUNNY     59  32  36 CALM      30.35R
VERNAL         SUNNY     58  32  37 SE3       30.33R

$$

UTZ013>016-019>022-027-281600-

SOUTHERN UTAH

CITY           SKY/WX    TMP DP  RH WIND       PRES   REMARKS
BRYCE CANYON   SUNNY     51  27  39 CALM      30.37S
CEDAR CITY     SUNNY     56  28  34 CALM      30.28R
MILFORD        SUNNY     58  27  30 N5        30.27S
ST GEORGE      SUNNY     69  29  22 CALM      30.14R
HANKSVILLE     SUNNY     64  27  24 CALM      30.28S
BLANDING       SUNNY     63  22  20 NE17G23   30.35S

$$

REGIONAL REPORTS     COLORADO/ARIZONA

CITY           SKY/WX    TMP DP  RH WIND       PRES   REMARKS
CRAIG, CO      SUNNY     49  35  58 NE6       30.37S
GRAND JUNCTION SUNNY     60  30  32 SE7       30.30S
RIFLE, CO      SUNNY     52  34  50 VRB3      30.35F
MONTROSE, CO   SUNNY     53  29  39 CALM      30.34F
CORTEZ, CO     SUNNY     53  29  39 CALM      30.29S
COLORADO CITY    N/A     72  28  20 NE15G21   30.23S
PAGE, AZ       SUNNY     69  25  19 VRB3      30.21R
GRAND CANYON   SUNNY     63  22  20 NE15G22   30.29R
KINGMAN, AZ    SUNNY     74  25  16 N7        30.09R
FLAGSTAFF, AZ  SUNNY     61  21  21 E14G21    30.29R

$$

REGIONAL REPORTS    NEVADA/IDAHO/WYOMING

CITY           SKY/WX    TMP DP  RH WIND       PRES   REMARKS
LAS VEGAS, NV  SUNNY     78  25  14 CALM      30.04R
ELY, NY        SUNNY     50  26  39 CALM      30.33S
ELKO, NV       SUNNY     54  34  46 CALM      30.29R
POCATELLO, ID  SUNNY     56  42  59 E3        30.30S
BURLEY, ID     SUNNY     53  43  68 CALM      30.27R
FORT BRIDGER,    N/A     53  32  45 NE3       30.41R
EVANSTON, WY   SUNNY     49  35  58 N3        30.37S
ROCK SPRINGS,  SUNNY     50  33  52 VRB3      30.37R
KEMMERER, WY     N/A     50  32  50 N5        30.40R

$$




USA.gov is the U.S. government's official web portal to all federal, state and local government web resources and services.